Year,Month,Day,Hour,Minute,Value (Times are PST for temperature in C)
2015,05,27,00,00,15.20
2015,05,27,00,01,15.20
2015,05,27,00,02,15.20
2015,05,27,00,03,15.20
2015,05,27,00,04,15.20
2015,05,27,00,05,15.20
2015,05,27,00,06,15.20
2015,05,27,00,07,15.20
2015,05,27,00,08,15.20
2015,05,27,00,09,15.20
2015,05,27,00,10,15.20
2015,05,27,00,11,15.20
2015,05,27,00,12,15.20
2015,05,27,00,13,15.20
2015,05,27,00,14,15.20
2015,05,27,00,15,15.20
2015,05,27,00,16,15.20
2015,05,27,00,17,15.20
2015,05,27,00,18,15.10
2015,05,27,00,19,15.10
2015,05,27,00,20,15.10
2015,05,27,00,21,15.10
2015,05,27,00,22,15.10
2015,05,27,00,23,15.00
2015,05,27,00,24,15.00
2015,05,27,00,25,15.00
2015,05,27,00,26,15.00
2015,05,27,00,27,15.00
2015,05,27,00,28,15.00
2015,05,27,00,29,15.00
2015,05,27,00,30,15.00
2015,05,27,00,31,15.00
2015,05,27,00,32,15.00
2015,05,27,00,33,15.00
2015,05,27,00,34,15.00
2015,05,27,00,35,15.00
2015,05,27,00,36,15.00
2015,05,27,00,37,15.00
2015,05,27,00,38,15.00
2015,05,27,00,39,15.00
2015,05,27,00,40,15.00
2015,05,27,00,41,15.00
2015,05,27,00,42,15.00
2015,05,27,00,43,15.00
2015,05,27,00,44,15.00
2015,05,27,00,45,15.00
2015,05,27,00,46,15.00
2015,05,27,00,47,15.00
2015,05,27,00,48,15.00
2015,05,27,00,49,15.00
2015,05,27,00,50,15.00
2015,05,27,00,51,15.00
2015,05,27,00,52,15.00
2015,05,27,00,53,15.00
2015,05,27,00,54,15.00
2015,05,27,00,55,15.00
2015,05,27,00,56,15.00
2015,05,27,00,57,15.00
2015,05,27,00,58,15.00
2015,05,27,00,59,15.00
2015,05,27,01,00,15.00
2015,05,27,01,01,15.00
2015,05,27,01,02,15.00
2015,05,27,01,03,15.00
2015,05,27,01,04,15.10
2015,05,27,01,05,15.10
2015,05,27,01,06,15.10
2015,05,27,01,07,15.10
2015,05,27,01,08,15.10
2015,05,27,01,09,15.20
2015,05,27,01,10,15.10
2015,05,27,01,11,15.20
2015,05,27,01,12,15.20
2015,05,27,01,13,15.20
2015,05,27,01,14,15.20
2015,05,27,01,15,15.20
2015,05,27,01,16,15.20
2015,05,27,01,17,15.20
2015,05,27,01,18,15.20
2015,05,27,01,19,15.20
2015,05,27,01,20,15.20
2015,05,27,01,21,15.20
2015,05,27,01,22,15.20
2015,05,27,01,23,15.20
2015,05,27,01,24,15.20
2015,05,27,01,25,15.20
2015,05,27,01,26,15.20
2015,05,27,01,27,15.20
2015,05,27,01,28,15.20
2015,05,27,01,29,15.20
2015,05,27,01,30,15.20
2015,05,27,01,31,15.20
2015,05,27,01,32,15.20
2015,05,27,01,33,15.20
2015,05,27,01,34,15.20
2015,05,27,01,35,15.20
2015,05,27,01,36,15.20
2015,05,27,01,37,15.20
2015,05,27,01,38,15.10
2015,05,27,01,39,15.20
2015,05,27,01,40,15.20
2015,05,27,01,41,15.10
2015,05,27,01,42,15.10
2015,05,27,01,43,15.10
2015,05,27,01,44,15.10
2015,05,27,01,45,15.10
2015,05,27,01,46,15.10
2015,05,27,01,47,15.10
2015,05,27,01,48,15.10
2015,05,27,01,49,15.10
2015,05,27,01,50,15.10
2015,05,27,01,51,15.10
2015,05,27,01,52,15.10
2015,05,27,01,53,15.10
2015,05,27,01,54,15.10
2015,05,27,01,55,15.10
2015,05,27,01,56,15.10
2015,05,27,01,57,15.10
2015,05,27,01,58,15.10
2015,05,27,01,59,15.10
2015,05,27,02,00,15.10
2015,05,27,02,01,15.00
2015,05,27,02,02,15.10
2015,05,27,02,03,15.10
2015,05,27,02,04,15.10
2015,05,27,02,05,15.10
2015,05,27,02,06,15.00
2015,05,27,02,07,15.00
2015,05,27,02,08,15.00
2015,05,27,02,09,15.00
2015,05,27,02,10,15.00
2015,05,27,02,11,15.00
2015,05,27,02,12,15.00
2015,05,27,02,13,15.00
2015,05,27,02,14,15.00
2015,05,27,02,15,15.00
2015,05,27,02,16,15.00
2015,05,27,02,17,15.00
2015,05,27,02,18,15.00
2015,05,27,02,19,15.00
2015,05,27,02,20,15.00
2015,05,27,02,21,15.00
2015,05,27,02,22,15.00
2015,05,27,02,23,15.00
2015,05,27,02,24,15.00
2015,05,27,02,25,15.00
2015,05,27,02,26,15.00
2015,05,27,02,27,15.00
2015,05,27,02,28,15.00
2015,05,27,02,29,15.00
2015,05,27,02,30,14.90
2015,05,27,02,31,14.90
2015,05,27,02,32,14.90
2015,05,27,02,33,14.90
2015,05,27,02,34,14.80
2015,05,27,02,35,14.80
2015,05,27,02,36,14.80
2015,05,27,02,37,14.80
2015,05,27,02,38,14.80
2015,05,27,02,39,14.80
2015,05,27,02,40,14.70
2015,05,27,02,41,14.70
2015,05,27,02,42,14.70
2015,05,27,02,43,14.70
2015,05,27,02,44,14.70
2015,05,27,02,45,14.70
2015,05,27,02,46,14.70
2015,05,27,02,47,14.70
2015,05,27,02,48,14.70
2015,05,27,02,49,14.70
2015,05,27,02,50,14.70
2015,05,27,02,51,14.70
2015,05,27,02,52,14.60
2015,05,27,02,53,14.60
2015,05,27,02,54,14.60
2015,05,27,02,55,14.60
2015,05,27,02,56,14.60
2015,05,27,02,57,14.60
2015,05,27,02,58,14.60
2015,05,27,02,59,14.60
2015,05,27,03,00,14.60
2015,05,27,03,01,14.60
2015,05,27,03,02,14.60
2015,05,27,03,03,14.60
2015,05,27,03,04,14.50
2015,05,27,03,05,14.50
2015,05,27,03,06,14.50
2015,05,27,03,07,14.50
2015,05,27,03,08,14.50
2015,05,27,03,09,14.40
2015,05,27,03,10,14.40
2015,05,27,03,11,14.40
2015,05,27,03,12,14.40
2015,05,27,03,13,14.40
2015,05,27,03,14,14.30
2015,05,27,03,15,14.30
2015,05,27,03,16,14.30
2015,05,27,03,17,14.30
2015,05,27,03,18,14.30
2015,05,27,03,19,14.20
2015,05,27,03,20,14.20
2015,05,27,03,21,14.20
2015,05,27,03,22,14.20
2015,05,27,03,23,14.10
2015,05,27,03,24,14.10
2015,05,27,03,25,14.10
2015,05,27,03,26,14.10
2015,05,27,03,27,14.10
2015,05,27,03,28,14.10
2015,05,27,03,29,14.00
2015,05,27,03,30,14.00
2015,05,27,03,31,14.00
2015,05,27,03,32,13.90
2015,05,27,03,33,13.90
2015,05,27,03,34,13.90
2015,05,27,03,35,13.90
2015,05,27,03,36,13.90
2015,05,27,03,37,13.90
2015,05,27,03,38,13.90
2015,05,27,03,39,13.80
2015,05,27,03,40,13.80
2015,05,27,03,41,13.80
2015,05,27,03,42,13.80
2015,05,27,03,43,13.80
2015,05,27,03,44,13.80
2015,05,27,03,45,13.80
2015,05,27,03,46,13.80
2015,05,27,03,47,13.70
2015,05,27,03,48,13.70
2015,05,27,03,49,13.70
2015,05,27,03,50,13.70
2015,05,27,03,51,13.70
2015,05,27,03,52,13.60
2015,05,27,03,53,13.60
2015,05,27,03,54,13.60
2015,05,27,03,55,13.60
2015,05,27,03,56,13.50
2015,05,27,03,57,13.50
2015,05,27,03,58,13.50
2015,05,27,03,59,13.40
2015,05,27,04,00,13.40
2015,05,27,04,01,13.40
2015,05,27,04,02,13.40
2015,05,27,04,03,13.40
2015,05,27,04,04,13.30
2015,05,27,04,05,13.30
2015,05,27,04,06,13.30
2015,05,27,04,07,13.30
2015,05,27,04,08,13.30
2015,05,27,04,09,13.30
2015,05,27,04,10,13.30
2015,05,27,04,11,13.20
2015,05,27,04,12,13.20
2015,05,27,04,13,13.20
2015,05,27,04,14,13.20
2015,05,27,04,15,13.20
2015,05,27,04,16,13.20
2015,05,27,04,17,13.20
2015,05,27,04,18,13.20
2015,05,27,04,19,13.20
2015,05,27,04,20,13.20
2015,05,27,04,21,13.20
2015,05,27,04,22,13.20
2015,05,27,04,23,13.20
2015,05,27,04,24,13.20
2015,05,27,04,25,13.20
2015,05,27,04,26,13.20
2015,05,27,04,27,13.20
2015,05,27,04,28,13.20
2015,05,27,04,29,13.20
2015,05,27,04,30,13.20
2015,05,27,04,31,13.20
2015,05,27,04,32,13.20
2015,05,27,04,33,13.20
2015,05,27,04,34,13.20
2015,05,27,04,35,13.20
2015,05,27,04,36,13.20
2015,05,27,04,37,13.20
2015,05,27,04,38,13.20
2015,05,27,04,39,13.20
2015,05,27,04,40,13.20
2015,05,27,04,41,13.30
2015,05,27,04,42,13.30
2015,05,27,04,43,13.30
2015,05,27,04,44,13.30
2015,05,27,04,45,13.30
2015,05,27,04,46,13.30
2015,05,27,04,47,13.30
2015,05,27,04,48,13.30
2015,05,27,04,49,13.30
2015,05,27,04,50,13.30
2015,05,27,04,51,13.30
2015,05,27,04,52,13.30
2015,05,27,04,53,13.30
2015,05,27,04,54,13.40
2015,05,27,04,55,13.40
2015,05,27,04,56,13.40
2015,05,27,04,57,13.40
2015,05,27,04,58,13.40
2015,05,27,04,59,13.40
2015,05,27,05,00,13.40
2015,05,27,05,01,13.40
2015,05,27,05,02,13.40
2015,05,27,05,03,13.40
2015,05,27,05,04,13.40
2015,05,27,05,05,13.40
2015,05,27,05,06,13.40
2015,05,27,05,07,13.40
2015,05,27,05,08,13.40
2015,05,27,05,09,13.40
2015,05,27,05,10,13.40
2015,05,27,05,11,13.30
2015,05,27,05,12,13.30
2015,05,27,05,13,13.30
2015,05,27,05,14,13.30
2015,05,27,05,15,13.30
2015,05,27,05,16,13.30
2015,05,27,05,17,13.30
2015,05,27,05,18,13.30
2015,05,27,05,19,13.30
2015,05,27,05,20,13.30
2015,05,27,05,21,13.30
2015,05,27,05,22,13.30
2015,05,27,05,23,13.30
2015,05,27,05,24,13.30
2015,05,27,05,25,13.30
2015,05,27,05,26,13.20
2015,05,27,05,27,13.20
2015,05,27,05,28,13.20
2015,05,27,05,29,13.20
2015,05,27,05,30,13.20
2015,05,27,05,31,13.20
2015,05,27,05,32,13.20
2015,05,27,05,33,13.20
2015,05,27,05,34,13.20
2015,05,27,05,35,13.20
2015,05,27,05,36,13.20
2015,05,27,05,37,13.10
2015,05,27,05,38,13.10
2015,05,27,05,39,13.10
2015,05,27,05,40,13.10
2015,05,27,05,41,13.10
2015,05,27,05,42,13.00
2015,05,27,05,43,12.90
2015,05,27,05,44,12.90
2015,05,27,05,45,12.90
2015,05,27,05,46,12.90
2015,05,27,05,47,12.80
2015,05,27,05,48,12.80
2015,05,27,05,49,12.80
2015,05,27,05,50,12.70
2015,05,27,05,51,12.70
2015,05,27,05,52,12.70
2015,05,27,05,53,12.60
2015,05,27,05,54,12.50
2015,05,27,05,55,12.50
2015,05,27,05,56,12.40
2015,05,27,05,57,12.40
2015,05,27,05,58,12.30
2015,05,27,05,59,12.30
2015,05,27,06,00,12.30
2015,05,27,06,01,12.30
2015,05,27,06,02,12.30
2015,05,27,06,03,12.30
2015,05,27,06,04,12.30
2015,05,27,06,05,12.30
2015,05,27,06,06,12.20
2015,05,27,06,07,12.20
2015,05,27,06,08,12.20
2015,05,27,06,09,12.20
2015,05,27,06,10,12.20
2015,05,27,06,11,12.20
2015,05,27,06,12,12.20
2015,05,27,06,13,12.20
2015,05,27,06,14,12.20
2015,05,27,06,15,12.20
2015,05,27,06,16,12.20
2015,05,27,06,17,12.20
2015,05,27,06,18,12.20
2015,05,27,06,19,12.20
2015,05,27,06,20,12.20
2015,05,27,06,21,12.20
2015,05,27,06,22,12.20
2015,05,27,06,23,12.20
2015,05,27,06,24,12.20
2015,05,27,06,25,12.20
2015,05,27,06,26,12.20
2015,05,27,06,27,12.20
2015,05,27,06,28,12.20
2015,05,27,06,29,12.20
2015,05,27,06,30,12.20
2015,05,27,06,31,12.20
2015,05,27,06,32,12.20
2015,05,27,06,33,12.20
2015,05,27,06,34,12.10
2015,05,27,06,35,12.10
2015,05,27,06,36,12.10
2015,05,27,06,37,12.10
2015,05,27,06,38,12.10
2015,05,27,06,39,12.20
2015,05,27,06,40,12.20
2015,05,27,06,41,12.20
2015,05,27,06,42,12.20
2015,05,27,06,43,12.20
2015,05,27,06,44,12.20
2015,05,27,06,45,12.20
2015,05,27,06,46,12.20
2015,05,27,06,47,12.20
2015,05,27,06,48,12.20
2015,05,27,06,49,12.20
2015,05,27,06,50,12.30
2015,05,27,06,51,12.30
2015,05,27,06,52,12.30
2015,05,27,06,53,12.30
2015,05,27,06,54,12.30
2015,05,27,06,55,12.30
2015,05,27,06,56,12.30
2015,05,27,06,57,12.30
2015,05,27,06,58,12.30
2015,05,27,06,59,12.40
2015,05,27,07,00,12.40
2015,05,27,07,01,12.40
2015,05,27,07,02,12.40
2015,05,27,07,03,12.40
2015,05,27,07,04,12.40
2015,05,27,07,05,12.40
2015,05,27,07,06,12.40
2015,05,27,07,07,12.50
2015,05,27,07,08,12.50
2015,05,27,07,09,12.50
2015,05,27,07,10,12.60
2015,05,27,07,11,12.60
2015,05,27,07,12,12.60
2015,05,27,07,13,12.60
2015,05,27,07,14,12.60
2015,05,27,07,15,12.70
2015,05,27,07,16,12.70
2015,05,27,07,17,12.70
2015,05,27,07,18,12.70
2015,05,27,07,19,12.70
2015,05,27,07,20,12.70
2015,05,27,07,21,12.70
2015,05,27,07,22,12.70
2015,05,27,07,23,12.70
2015,05,27,07,24,12.80
2015,05,27,07,25,12.80
2015,05,27,07,26,12.80
2015,05,27,07,27,12.80
2015,05,27,07,28,12.80
2015,05,27,07,29,12.80
2015,05,27,07,30,12.80
2015,05,27,07,31,12.80
2015,05,27,07,32,12.80
2015,05,27,07,33,12.90
2015,05,27,07,34,12.90
2015,05,27,07,35,12.90
2015,05,27,07,36,12.90
2015,05,27,07,37,13.00
2015,05,27,07,38,13.00
2015,05,27,07,39,13.10
2015,05,27,07,40,13.10
2015,05,27,07,41,13.10
2015,05,27,07,42,13.10
2015,05,27,07,43,13.20
2015,05,27,07,44,13.20
2015,05,27,07,45,13.20
2015,05,27,07,46,13.20
2015,05,27,07,47,13.30
2015,05,27,07,48,13.30
2015,05,27,07,49,13.30
2015,05,27,07,50,13.40
2015,05,27,07,51,13.40
2015,05,27,07,52,13.40
2015,05,27,07,53,13.50
2015,05,27,07,54,13.50
2015,05,27,07,55,13.60
2015,05,27,07,56,13.60
2015,05,27,07,57,13.60
2015,05,27,07,58,13.70
2015,05,27,07,59,13.70
2015,05,27,08,00,13.80
2015,05,27,08,01,13.80
2015,05,27,08,02,13.80
2015,05,27,08,03,13.90
2015,05,27,08,04,13.90
2015,05,27,08,05,14.00
2015,05,27,08,06,14.00
2015,05,27,08,07,14.10
2015,05,27,08,08,14.10
2015,05,27,08,09,14.20
2015,05,27,08,10,14.20
2015,05,27,08,11,14.20
2015,05,27,08,12,14.20
2015,05,27,08,13,14.20
2015,05,27,08,14,14.20
2015,05,27,08,15,14.20
2015,05,27,08,16,14.20
2015,05,27,08,17,14.20
2015,05,27,08,18,14.10
2015,05,27,08,19,14.10
2015,05,27,08,20,14.10
2015,05,27,08,21,14.10
2015,05,27,08,22,14.10
2015,05,27,08,23,14.10
2015,05,27,08,24,14.10
2015,05,27,08,25,14.20
2015,05,27,08,26,14.20
2015,05,27,08,27,14.20
2015,05,27,08,28,14.20
2015,05,27,08,29,14.20
2015,05,27,08,30,14.20
2015,05,27,08,31,14.20
2015,05,27,08,32,14.20
2015,05,27,08,33,14.20
2015,05,27,08,34,14.20
2015,05,27,08,35,14.20
2015,05,27,08,36,14.20
2015,05,27,08,37,14.20
2015,05,27,08,38,14.30
2015,05,27,08,39,14.30
2015,05,27,08,40,14.30
2015,05,27,08,41,14.30
2015,05,27,08,42,14.40
2015,05,27,08,43,14.40
2015,05,27,08,44,14.50
2015,05,27,08,45,14.60
2015,05,27,08,46,14.60
2015,05,27,08,47,14.70
2015,05,27,08,48,14.80
2015,05,27,08,49,14.80
2015,05,27,08,50,15.00
2015,05,27,08,51,15.00
2015,05,27,08,52,15.00
2015,05,27,08,53,15.00
2015,05,27,08,54,15.10
2015,05,27,08,55,15.20
2015,05,27,08,56,15.30
2015,05,27,08,57,15.30
2015,05,27,08,58,15.30
2015,05,27,08,59,15.30
2015,05,27,09,00,15.30
2015,05,27,09,01,15.30
2015,05,27,09,02,15.30
2015,05,27,09,03,15.30
2015,05,27,09,04,15.30
2015,05,27,09,05,15.30
2015,05,27,09,06,15.40
2015,05,27,09,07,15.40
2015,05,27,09,08,15.50
2015,05,27,09,09,15.50
2015,05,27,09,10,15.60
2015,05,27,09,11,15.70
2015,05,27,09,12,15.80
2015,05,27,09,13,15.90
2015,05,27,09,14,16.00
2015,05,27,09,15,16.10
2015,05,27,09,16,16.20
2015,05,27,09,17,16.30
2015,05,27,09,18,16.40
2015,05,27,09,19,16.50
2015,05,27,09,20,16.60
2015,05,27,09,21,16.60
2015,05,27,09,22,16.60
2015,05,27,09,23,16.60
2015,05,27,09,24,16.60
2015,05,27,09,25,16.60
2015,05,27,09,26,16.60
2015,05,27,09,27,16.60
2015,05,27,09,28,16.60
2015,05,27,09,29,16.60
2015,05,27,09,30,16.70
2015,05,27,09,31,16.70
2015,05,27,09,32,16.70
2015,05,27,09,33,16.80
2015,05,27,09,34,16.80
2015,05,27,09,35,16.70
2015,05,27,09,36,16.70
2015,05,27,09,37,16.70
2015,05,27,09,38,16.70
2015,05,27,09,39,16.70
2015,05,27,09,40,16.70
2015,05,27,09,41,16.60
2015,05,27,09,42,16.60
2015,05,27,09,43,16.60
2015,05,27,09,44,16.60
2015,05,27,09,45,16.70
2015,05,27,09,46,16.70
2015,05,27,09,47,16.80
2015,05,27,09,48,16.80
2015,05,27,09,49,16.90
2015,05,27,09,50,17.00
2015,05,27,09,51,17.10
2015,05,27,09,52,17.10
2015,05,27,09,53,17.20
2015,05,27,09,54,17.30
2015,05,27,09,55,17.40
2015,05,27,09,56,17.50
2015,05,27,09,57,17.60
2015,05,27,09,58,17.70
2015,05,27,09,59,17.70
2015,05,27,10,00,17.80
2015,05,27,10,01,17.90
2015,05,27,10,02,17.90
2015,05,27,10,03,18.00
2015,05,27,10,04,18.10
2015,05,27,10,05,18.10
2015,05,27,10,06,18.20
2015,05,27,10,07,18.20
2015,05,27,10,08,18.20
2015,05,27,10,09,18.30
2015,05,27,10,10,18.30
2015,05,27,10,11,18.30
2015,05,27,10,12,18.30
2015,05,27,10,13,18.40
2015,05,27,10,14,18.40
2015,05,27,10,15,18.40
2015,05,27,10,16,18.30
2015,05,27,10,17,18.30
2015,05,27,10,18,18.30
2015,05,27,10,19,18.20
2015,05,27,10,20,18.20
2015,05,27,10,21,18.20
2015,05,27,10,22,18.20
2015,05,27,10,23,18.20
2015,05,27,10,24,18.20
2015,05,27,10,25,18.20
2015,05,27,10,26,18.20
2015,05,27,10,27,18.20
2015,05,27,10,28,18.20
2015,05,27,10,29,18.20
2015,05,27,10,30,18.20
2015,05,27,10,31,18.20
2015,05,27,10,32,18.20
2015,05,27,10,33,18.20
2015,05,27,10,34,18.10
2015,05,27,10,35,18.10
2015,05,27,10,36,18.00
2015,05,27,10,37,17.90
2015,05,27,10,38,17.80
2015,05,27,10,39,17.80
2015,05,27,10,40,17.70
2015,05,27,10,41,17.70
2015,05,27,10,42,17.70
2015,05,27,10,43,17.70
2015,05,27,10,44,17.60
2015,05,27,10,45,17.60
2015,05,27,10,46,17.60
2015,05,27,10,47,17.50
2015,05,27,10,48,17.50
2015,05,27,10,49,17.50
2015,05,27,10,50,17.50
2015,05,27,10,51,17.50
2015,05,27,10,52,17.50
2015,05,27,10,53,17.40
2015,05,27,10,54,17.40
2015,05,27,10,55,17.50
2015,05,27,10,56,17.50
2015,05,27,10,57,17.50
2015,05,27,10,58,17.50
2015,05,27,10,59,17.50
2015,05,27,11,00,17.50
2015,05,27,11,01,17.40
2015,05,27,11,02,17.40
2015,05,27,11,03,17.50
2015,05,27,11,04,17.50
2015,05,27,11,05,17.60
2015,05,27,11,06,17.60
2015,05,27,11,07,17.60
2015,05,27,11,08,17.60
2015,05,27,11,09,17.50
2015,05,27,11,10,17.40
2015,05,27,11,11,17.40
2015,05,27,11,12,17.40
2015,05,27,11,13,17.40
2015,05,27,11,14,17.50
2015,05,27,11,15,17.50
2015,05,27,11,16,17.60
2015,05,27,11,17,17.60
2015,05,27,11,18,17.60
2015,05,27,11,19,17.60
2015,05,27,11,20,17.70
2015,05,27,11,21,17.60
2015,05,27,11,22,17.60
2015,05,27,11,23,17.60
2015,05,27,11,24,17.60
2015,05,27,11,25,17.70
2015,05,27,11,26,17.70
2015,05,27,11,27,17.70
2015,05,27,11,28,17.80
2015,05,27,11,29,17.80
2015,05,27,11,30,17.80
2015,05,27,11,31,17.90
2015,05,27,11,32,17.80
2015,05,27,11,33,17.70
2015,05,27,11,34,17.60
2015,05,27,11,35,17.50
2015,05,27,11,36,17.50
2015,05,27,11,37,17.40
2015,05,27,11,38,17.30
2015,05,27,11,39,17.30
2015,05,27,11,40,17.30
2015,05,27,11,41,17.30
2015,05,27,11,42,17.40
2015,05,27,11,43,17.30
2015,05,27,11,44,17.30
2015,05,27,11,45,17.30
2015,05,27,11,46,17.20
2015,05,27,11,47,17.20
2015,05,27,11,48,17.20
2015,05,27,11,49,17.20
2015,05,27,11,50,17.10
2015,05,27,11,51,17.10
2015,05,27,11,52,17.10
2015,05,27,11,53,17.10
2015,05,27,11,54,17.10
2015,05,27,11,55,17.20
2015,05,27,11,56,17.30
2015,05,27,11,57,17.30
2015,05,27,11,58,17.40
2015,05,27,11,59,17.40
2015,05,27,12,00,17.50
2015,05,27,12,01,17.60
2015,05,27,12,02,17.70
2015,05,27,12,03,17.70
2015,05,27,12,04,17.80
2015,05,27,12,05,17.80
2015,05,27,12,06,17.80
2015,05,27,12,07,17.90
2015,05,27,12,08,17.90
2015,05,27,12,09,18.00
2015,05,27,12,10,18.00
2015,05,27,12,11,17.90
2015,05,27,12,12,17.90
2015,05,27,12,13,17.80
2015,05,27,12,14,17.70
2015,05,27,12,15,17.70
2015,05,27,12,16,17.70
2015,05,27,12,17,17.80
2015,05,27,12,18,17.80
2015,05,27,12,19,17.80
2015,05,27,12,20,17.90
2015,05,27,12,21,17.90
2015,05,27,12,22,17.90
2015,05,27,12,23,17.90
2015,05,27,12,24,17.80
2015,05,27,12,25,17.80
2015,05,27,12,26,17.80
2015,05,27,12,27,17.80
2015,05,27,12,28,17.80
2015,05,27,12,29,17.80
2015,05,27,12,30,17.80
2015,05,27,12,31,17.90
2015,05,27,12,32,17.90
2015,05,27,12,33,17.90
2015,05,27,12,34,17.80
2015,05,27,12,35,17.70
2015,05,27,12,36,17.70
2015,05,27,12,37,17.70
2015,05,27,12,38,17.80
2015,05,27,12,39,17.70
2015,05,27,12,40,17.60
2015,05,27,12,41,17.60
2015,05,27,12,42,17.70
2015,05,27,12,43,17.70
2015,05,27,12,44,17.70
2015,05,27,12,45,17.60
2015,05,27,12,46,17.60
2015,05,27,12,47,17.60
2015,05,27,12,48,17.60
2015,05,27,12,49,17.60
2015,05,27,12,50,17.60
2015,05,27,12,51,17.60
2015,05,27,12,52,17.60
2015,05,27,12,53,17.60
2015,05,27,12,54,17.60
2015,05,27,12,55,17.60
2015,05,27,12,56,17.60
2015,05,27,12,57,17.60
2015,05,27,12,58,17.50
2015,05,27,12,59,17.50
2015,05,27,13,00,17.50
2015,05,27,13,01,17.50
2015,05,27,13,02,17.50
2015,05,27,13,03,17.50
2015,05,27,13,04,17.50
2015,05,27,13,05,17.40
2015,05,27,13,06,17.50
2015,05,27,13,07,17.60
2015,05,27,13,08,17.60
2015,05,27,13,09,17.60
2015,05,27,13,10,17.70
2015,05,27,13,11,17.70
2015,05,27,13,12,17.70
2015,05,27,13,13,17.70
2015,05,27,13,14,17.80
2015,05,27,13,15,17.80
2015,05,27,13,16,17.80
2015,05,27,13,17,17.80
2015,05,27,13,18,17.80
2015,05,27,13,19,17.80
2015,05,27,13,20,17.90
2015,05,27,13,21,17.80
2015,05,27,13,22,17.80
2015,05,27,13,23,17.80
2015,05,27,13,24,17.80
2015,05,27,13,25,17.80
2015,05,27,13,26,17.80
2015,05,27,13,27,17.80
2015,05,27,13,28,17.80
2015,05,27,13,29,17.80
2015,05,27,13,30,17.70
2015,05,27,13,31,17.70
2015,05,27,13,32,17.60
2015,05,27,13,33,17.60
2015,05,27,13,34,17.50
2015,05,27,13,35,17.50
2015,05,27,13,36,17.40
2015,05,27,13,37,17.40
2015,05,27,13,38,17.30
2015,05,27,13,39,17.20
2015,05,27,13,40,17.20
2015,05,27,13,41,17.30
2015,05,27,13,42,17.30
2015,05,27,13,43,17.30
2015,05,27,13,44,17.40
2015,05,27,13,45,17.40
2015,05,27,13,46,17.40
2015,05,27,13,47,17.40
2015,05,27,13,48,17.40
2015,05,27,13,49,17.50
2015,05,27,13,50,17.50
2015,05,27,13,51,17.70
2015,05,27,13,52,17.80
2015,05,27,13,53,17.90
2015,05,27,13,54,17.90
2015,05,27,13,55,17.80
2015,05,27,13,56,17.80
2015,05,27,13,57,17.70
2015,05,27,13,58,17.70
2015,05,27,13,59,17.70
2015,05,27,14,00,17.70
2015,05,27,14,01,17.80
2015,05,27,14,02,17.80
2015,05,27,14,03,17.80
2015,05,27,14,04,17.80
2015,05,27,14,05,17.80
2015,05,27,14,06,17.80
2015,05,27,14,07,17.80
2015,05,27,14,08,17.80
2015,05,27,14,09,17.80
2015,05,27,14,10,17.90
2015,05,27,14,11,18.00
2015,05,27,14,12,18.10
2015,05,27,14,13,18.10
2015,05,27,14,14,18.10
2015,05,27,14,15,18.10
2015,05,27,14,16,18.00
2015,05,27,14,17,18.00
2015,05,27,14,18,17.80
2015,05,27,14,19,17.80
2015,05,27,14,20,17.80
2015,05,27,14,21,17.80
2015,05,27,14,22,17.80
2015,05,27,14,23,17.80
2015,05,27,14,24,17.90
2015,05,27,14,25,18.00
2015,05,27,14,26,18.10
2015,05,27,14,27,18.20
2015,05,27,14,28,18.30
2015,05,27,14,29,18.30
2015,05,27,14,30,18.40
2015,05,27,14,31,18.50
2015,05,27,14,32,18.60
2015,05,27,14,33,18.60
2015,05,27,14,34,18.70
2015,05,27,14,35,18.60
2015,05,27,14,36,18.60
2015,05,27,14,37,18.50
2015,05,27,14,38,18.40
2015,05,27,14,39,18.40
2015,05,27,14,40,18.40
2015,05,27,14,41,18.50
2015,05,27,14,42,18.50
2015,05,27,14,43,18.60
2015,05,27,14,44,18.60
2015,05,27,14,45,18.70
2015,05,27,14,46,18.70
2015,05,27,14,47,18.70
2015,05,27,14,48,18.80
2015,05,27,14,49,18.80
2015,05,27,14,50,19.00
2015,05,27,14,51,19.10
2015,05,27,14,52,19.20
2015,05,27,14,53,19.30
2015,05,27,14,54,19.40
2015,05,27,14,55,19.40
2015,05,27,14,56,19.40
2015,05,27,14,57,19.50
2015,05,27,14,58,19.50
2015,05,27,14,59,19.50
2015,05,27,15,00,19.50
2015,05,27,15,01,19.50
2015,05,27,15,02,19.60
2015,05,27,15,03,19.50
2015,05,27,15,04,19.40
2015,05,27,15,05,19.30
2015,05,27,15,06,19.20
2015,05,27,15,07,19.20
2015,05,27,15,08,19.20
2015,05,27,15,09,19.20
2015,05,27,15,10,19.30
2015,05,27,15,11,19.30
2015,05,27,15,12,19.30
2015,05,27,15,13,19.30
2015,05,27,15,14,19.30
2015,05,27,15,15,19.40
2015,05,27,15,16,19.40
2015,05,27,15,17,19.40
2015,05,27,15,18,19.50
2015,05,27,15,19,19.50
2015,05,27,15,20,19.50
2015,05,27,15,21,19.50
2015,05,27,15,22,19.50
2015,05,27,15,23,19.60
2015,05,27,15,24,19.60
2015,05,27,15,25,19.70
2015,05,27,15,26,19.70
2015,05,27,15,27,19.70
2015,05,27,15,28,19.80
2015,05,27,15,29,19.80
2015,05,27,15,30,19.90
2015,05,27,15,31,19.90
2015,05,27,15,32,19.80
2015,05,27,15,33,19.80
2015,05,27,15,34,19.90
2015,05,27,15,35,20.00
2015,05,27,15,36,20.00
2015,05,27,15,37,20.10
2015,05,27,15,38,20.20
2015,05,27,15,39,20.20
2015,05,27,15,40,20.30
2015,05,27,15,41,20.30
2015,05,27,15,42,20.40
2015,05,27,15,43,20.40
2015,05,27,15,44,20.40
2015,05,27,15,45,20.50
2015,05,27,15,46,20.60
2015,05,27,15,47,20.60
2015,05,27,15,48,20.60
2015,05,27,15,49,20.60
2015,05,27,15,50,20.60
2015,05,27,15,51,20.50
2015,05,27,15,52,20.50
2015,05,27,15,53,20.50
2015,05,27,15,54,20.50
2015,05,27,15,55,20.60
2015,05,27,15,56,20.60
2015,05,27,15,57,20.60
2015,05,27,15,58,20.60
2015,05,27,15,59,20.60
2015,05,27,16,00,20.60
2015,05,27,16,01,20.70
2015,05,27,16,02,20.70
2015,05,27,16,03,20.70
2015,05,27,16,04,20.80
2015,05,27,16,05,20.80
2015,05,27,16,06,20.80
2015,05,27,16,07,20.80
2015,05,27,16,08,20.70
2015,05,27,16,09,20.70
2015,05,27,16,10,20.70
2015,05,27,16,11,20.70
2015,05,27,16,12,20.60
2015,05,27,16,13,20.60
2015,05,27,16,14,20.60
2015,05,27,16,15,20.70
2015,05,27,16,16,20.70
2015,05,27,16,17,20.70
2015,05,27,16,18,20.70
2015,05,27,16,19,20.70
2015,05,27,16,20,20.80
2015,05,27,16,21,20.80
2015,05,27,16,22,20.80
2015,05,27,16,23,20.90
2015,05,27,16,24,20.90
2015,05,27,16,25,21.00
2015,05,27,16,26,21.00
2015,05,27,16,27,21.10
2015,05,27,16,28,21.10
2015,05,27,16,29,21.10
2015,05,27,16,30,21.20
2015,05,27,16,31,21.20
2015,05,27,16,32,21.30
2015,05,27,16,33,21.30
2015,05,27,16,34,21.30
2015,05,27,16,35,21.30
2015,05,27,16,36,21.30
2015,05,27,16,37,21.30
2015,05,27,16,38,21.30
2015,05,27,16,39,21.30
2015,05,27,16,40,21.30
2015,05,27,16,41,21.30
2015,05,27,16,42,21.30
2015,05,27,16,43,21.30
2015,05,27,16,44,21.30
2015,05,27,16,45,21.30
2015,05,27,16,46,21.30
2015,05,27,16,47,21.30
2015,05,27,16,48,21.30
2015,05,27,16,49,21.30
2015,05,27,16,50,21.20
2015,05,27,16,51,21.20
2015,05,27,16,52,21.00
2015,05,27,16,53,20.90
2015,05,27,16,54,20.80
2015,05,27,16,55,20.80
2015,05,27,16,56,20.80
2015,05,27,16,57,20.80
2015,05,27,16,58,20.80
2015,05,27,16,59,20.80
2015,05,27,17,00,20.80
2015,05,27,17,01,20.90
2015,05,27,17,02,20.90
2015,05,27,17,03,20.90
2015,05,27,17,04,20.90
2015,05,27,17,05,21.00
2015,05,27,17,06,21.00
2015,05,27,17,07,21.00
2015,05,27,17,08,21.10
2015,05,27,17,09,21.00
2015,05,27,17,10,21.00
2015,05,27,17,11,20.90
2015,05,27,17,12,21.00
2015,05,27,17,13,21.00
2015,05,27,17,14,21.00
2015,05,27,17,15,20.90
2015,05,27,17,16,20.90
2015,05,27,17,17,21.00
2015,05,27,17,18,21.00
2015,05,27,17,19,21.10